Location: Casa Rossa
(45.2389°N, 12.2056°E)
Time: 23:46:39
(UTC+00:00)

IDEFIX/ARIANE 42P - Pass Details

Date: 14 July 2020
Orbit: 784 x 804 km, 98.4° (Epoch: 14 August)

Event Time Altitude Azimuth Distance (km) Brightness Sun altitude
Rises 01:53:16 0° 20° (NNE) 3,292 7.3 -14.3°
Reaches altitude 10° 01:55:45 10° 27° (NNE) 2,356 6.4 -14.0°
Maximum altitude 02:00:39 41° 98° (E) 1,128 3.6 -13.5°
Drops below altitude 10° 02:05:30 10° 168° (SSE) 2,336 4.6 -12.9°
Enters shadow 02:06:34 - 172° (S) 2,737 5.0 -12.8°
